Regional Weather Roundup
Issued by NWS

Home | Current Version | Previous Version | Text Only | Print | Product List | Glossary On
Versions: 1 2 3 4 5 6 7 8 9 10 11 12 13 14 15 16 17 18 19 20 21 22 23 24 25 26 27 28 29 30 31 32 33 34 35 36 37 38 39 40 41 42 43 44 45 46 47 48 49 50
000
ASCA44 KEWX 202020
RWRMX

LATIN AMERICA AND CARIBBEAN REGIONAL WEATHER ROUNDUP
NATIONAL WEATHER SERVICE AUSTIN/SAN ANTONIO TX
300 PM CDT WED AUG 20 2014

NOTE: "FAIR" INDICATED FEW OR NO CLOUDS BELOW 12,000 FEET WITH NO
SIGNIFICANT WEATHER AND/OR OBSTRUCTIONS TO VISIBILITY.

BAJA CALIFORNIA

CITY           SKY/WX    TMP DP  RH WIND       PRES   REMARKS
LORETO         MOSUNNY   91  72  52 NE12      29.84F HX  98
LA PAZ         PTSUNNY   95  63  34 E7        29.87  HX  96
MEXICALI       PTSUNNY   97  41  14 NW7       29.82  HX  92
S.J. DEL CABO  PTSUNNY   93  64  38 SE15      29.89  HX  95
TIJUANA        PTSUNNY   73  57  56 W12       29.96

NORTHWESTERN MEXICO

CITY           SKY/WX    TMP DP  RH WIND       PRES   REMARKS
CULIACAN       PTSUNNY   90  77  66 SW6       29.86  HX 102
DURANGO        PTSUNNY   75  54  46 E5        30.19F
GUAYMAS        PTSUNNY   88  75  66 N12       29.83  HX  97
HERMOSILLO     PTSUNNY   91  70  49 S6        29.92  HX  97
CD. JUAREZ     MOSUNNY   90  61  37 S12       29.98
LOS MOCHIS     PTSUNNY   81  73  78 S8        29.88F
OBREGON        PTSUNNY   95  68  41 SW5       29.84  HX  99

NORTHEASTERN MEXICO

CITY           SKY/WX    TMP DP  RH WIND       PRES   REMARKS
CHIHUAHUA      PTSUNNY   81  55  41 E5        30.10
MATAMOROS      PTSUNNY   95  75  52 SE18G30   29.94  HX 107
MONCLOVA       MOSUNNY   95  70  43 CALM      29.87F HX 101
MONTERREY      MOSUNNY   91  64  40 SE12      29.89F HX  93
NUEVO LAREDO   MOSUNNY   99  68  36 SE9       29.87  HX 104
PIEDRAS NEGRAS MOSUNNY   93  72  49 SE9       29.89F HX 100
REYNOSA        PTSUNNY   95  66  38 S17G29    29.88  HX  98
SALTILLO       LGT RAIN  79  63  57 E23       30.14R
TORREON        PTSUNNY   90  57  33 CALM      30.01
CD. VICTORIA   MOSUNNY   95  63  34 SE18      29.90  HX  96

WESTERN MEXICO

CITY           SKY/WX    TMP DP  RH WIND       PRES   REMARKS
AGUASCALIENTES PTSUNNY   70  50  49 SE5       30.25
COLIMA         MOSUNNY   84  64  51 CALM      29.99F
DEL BAJIO      PTSUNNY   77  57  50 S7        30.26F
GUADALAJARA    PTSUNNY   77  59  53 SW12      30.14
MANZANILLO     MOSUNNY   91  77  62 SW9       29.80  HX 105
MAZATLAN       PTSUNNY   90  77  66 W10       29.85F HX 102
P. VALLARTA    MOSUNNY   90  73  58 SW7       29.87F HX  98
URUAPAN        PTSUNNY   75  61  60 S12       30.18F
ZACATECAS      PTSUNNY   57  48  72 CALM      30.29

CENTRAL MEXICO

CITY           SKY/WX    TMP DP  RH WIND       PRES   REMARKS
CUERNAVACA     PTSUNNY   79  57  47 W7        30.13F
MEXICO CITY    PTSUNNY   75  52  43 NE8       30.29F
MORELIA        PTSUNNY   75  57  53 SE5       30.22
POZA RICA      PTSUNNY   95  75  52 SE9       29.96S HX 107
PUEBLA         CLOUDY    75  48  38 SE5       30.34F
QUERETARO      PTSUNNY   81  57  44 NE6       30.28F
S. LUIS POTOSI PTSUNNY   61  57  88 NE10      30.24  THUNDER
TAMPICO        MOSUNNY   90  75  62 SE20      29.93F HX 100
TOLUCA         PTSUNNY   70  43  37 E5          N/A

SOUTHERN MEXICO

CITY           SKY/WX    TMP DP  RH WIND       PRES   REMARKS
ACAPULCO       MOSUNNY   90  77  66 SW8       29.84F HX 102
B. DE HUATULCO CLOUDY    86  73  66 CALM      29.92  HX  93
P. ESCONDIDO   CLOUDY    82  75  78 S8        30.03S
VERACRUZ       PTSUNNY   88  73  62 NE9       29.93F HX  96
ZIHUATANEJO    MOSUNNY   93  77  59 SW12      29.84F HX 107

YUCATAN PENINSULA

CITY           SKY/WX    TMP DP  RH WIND       PRES   REMARKS
CAMPECHE       MOSUNNY   93  73  52 E12       29.93F HX 102
CANCUN         MOSUNNY   91  75  59 E10       30.04S HX 102
CHETUMAL       MOSUNNY   90  77  66 E17       29.96F HX 102
CD. DEL CARMEN PTSUNNY   91  73  55 SE12      29.92  HX 100
COZUMEL        PTSUNNY   88  79  74 E14       30.02F HX 102
MERIDA         MOSUNNY   93  68  43 E15       29.98F HX  97
MINATITLAN       N/A    N/A N/A N/A MISG        N/A
TAPACHULA      RAIN      82  77  83 SW10      29.90R VSB 1   HX  91
TUX. GUTIERREZ PTSUNNY   91  64  40 S8        29.90F HX  93
VILLAHERMOSA   CLOUDY    91  66  43 E17       29.90F HX  94

CENTRAL AMERICA

CITY           SKY/WX    TMP DP  RH WIND       PRES   REMARKS
BELIZE CITY    PTSUNNY   88  79  74 E10       29.96F HX 102
MANAGUA        DRIZZLE  N/A N/A N/A E9          N/A

CARIBBEAN

CITY           SKY/WX    TMP DP  RH WIND       PRES   REMARKS
ARUBA          MOSUNNY   90  75  62 E18       29.83F HX 100
CURACAO        MOSUNNY   86  77  74 E14       29.89S HX  97
KINGSTON       MOSUNNY   90  77  66 SE24      29.92F HX 102
NASSAU         MOSUNNY   90  75  62 SE7       30.07F HX 100
SAN JUAN       MOSUNNY   84  77  79 NE15      29.98S HX  94
SANTO DOMINGO  RAIN      77  73  88 N5        29.94F
ST. CROIX      MOSUNNY   88  73  62 E15G22    29.97F HX  96
ST. MAARTEN    PTSUNNY   88  73  62 E12       29.97S HX  96
ST. THOMAS     PTSUNNY   88  73  62 E14       29.97S HX  96

$$



USA.gov is the U.S. government's official web portal to all federal, state and local government web resources and services.